Regional Weather Roundup
Issued by NWS

Home | Current Version | Previous Version | Graphics & Text | Print | Product List | Glossary On
Versions: 1 2 3 4 5 6 7 8 9 10 11 12 13 14 15 16 17 18 19 20 21 22 23 24 25 26 27 28 29 30 31 32 33 34 35 36 37 38 39 40 41 42 43 44 45 46 47 48 49 50
000
ASUS43 KLOT 260908
RWRIL

ILLINOIS REGIONAL WEATHER ROUNDUP
NATIONAL WEATHER SERVICE CHICAGO/ROMEOVILLE IL
400 AM CDT TUE JUL 26 2016

NOTE: "FAIR" INDICATES FEW OR NO CLOUDS BELOW 12,000 FEET WITH NO
SIGNIFICANT WEATHER AND/OR OBSTRUCTIONS TO VISIBILITY.

* THESE STATIONS ARE NOT UNDER NWS QUALITY CONTROL. THEY ALSO MAY NOT
  REPORT WEATHER SUCH AS PRECIPITATION OR FOG.

ILZ001-002-007-009-015-016-024-261000-
NORTHWEST ILLINOIS

CITY           SKY/WX    TMP DP  RH WIND       PRES   REMARKS
MOLINE         CLEAR     66  63  90 CALM      30.05R
STERLING*      CLEAR     66  65  96 CALM      30.06R
SAVANNA*       CLEAR     64  64  99 CALM      30.05S
$$

ILZ003-004-008-010-011-017-018-261000-
NORTH CENTRAL ILLINOIS

CITY           SKY/WX    TMP DP  RH WIND       PRES   REMARKS
ROCKFORD       CLEAR     67  65  93 CALM      30.07R
FREEPORT*      CLEAR     62  61  96 CALM      30.08R
ROCHELLE*      CLEAR     63  62  99 CALM      30.06S
DE KALB*       PTCLDY    66  64  94 N3        30.06S
$$

ILZ005-006-012>014-019>023-261000-
NORTHEAST ILLINOIS

CITY           SKY/WX    TMP DP  RH WIND       PRES   REMARKS
CHICAGO-OHARE  PTCLDY    70  63  78 CALM      30.03S
CHICAGO-MIDWAY PTCLDY    76  64  66 CALM      30.03R
AURORA         PTCLDY    65  63  93 CALM      30.04S
LANSING*       CLEAR     69  65  86 CALM      30.04R
JOLIET*        CLEAR     70  67  90 E3        30.04R
WAUKEGAN       CLEAR     68  63  84 W3        30.04R
DUPAGE AIRPORT CLEAR     68  64  87 CALM      30.04R
KANKAKEE*      PTCLDY    68  67  96 CALM      30.04S FOG
WHEELING       PTCLDY    69  65  86 CALM      30.05R
MORRIS*        PTCLDY    68  66  92 CALM      30.02S
ROMEOVILLE*    MOCLDY    68  64  86 NE3       30.04S
NORTHERLY ISL    N/A     72  63  73 CALM        N/A
$$

LMZ740>746-261000-
SOUTHERN LAKE MICHIGAN

STATION/POSITION SKY/WX   TEMP    WIND        PRES    VSBY  WAVE
                          AIR SEA DIR/SP/G                  HT/PER
                          (F)     (DEG/KT/KT) (MB)    (MI)  (FT/S)
SOUTHERN BUOY              73 73  220/  4/  6 1016.2R         0
WILMETTE HARBOR            70 67  300/  2/  2   N/A           0
HARRISON CRIB              76     230/  1/  2   N/A
BURNHAM HARBOR             73        CALM       N/A
CALUMET HARBOR             71      CALM  /  1 1016.2S
BURNS HARBOR               74      CALM  /  4 1017.3S
MICHIGAN CITY              71     130/  4/  5   N/A
MICHIGAN CITY 6N           74 74  200/  2/  2   N/A           1
ST. JOSEPH                 73 76  110/  2/  2 1016.8R         0
$$

ILZ025>027-034>036-040-047-049-050-058-095>099-261000-
WEST-CENTRAL ILLINOIS

CITY           SKY/WX    TMP DP  RH WIND       PRES   REMARKS
QUINCY         CLEAR     69  66  90 N5        30.04S
GALESBURG*     CLEAR     64  64  98 CALM      30.06S
MACOMB*        CLEAR     64  64  98 CALM      30.07S
JACKSONVILLE*  CLOUDY    72  70  93 N5        30.03S
PITTSFIELD*    CLOUDY    72  69  90 N6        30.04F
$$

ILZ028>032-037-038-041>044-048-051>054-059>061-261000-
CENTRAL ILLINOIS

CITY           SKY/WX    TMP DP  RH WIND       PRES   REMARKS
BLOOMINGTON    PTCLDY    71  68  90 N6        30.06R
DECATUR        CLOUDY    74  70  87 N5        30.03R
PEORIA         CLEAR     70  68  93 CALM      30.04R
LACON*         CLEAR     66  65  97 CALM      30.04R
LINCOLN*       MOCLDY    71  71  99 CALM      30.03S
SPRINGFIELD    MOCLDY    73  70  90 N3        30.03R
TAYLORVILLE    CLOUDY    73  72  98 MISG      30.02S
$$

ILZ033-039-045-046-055>057-062-063-261000-
EAST-CENTRAL ILLINOIS

CITY           SKY/WX    TMP DP  RH WIND       PRES   REMARKS
CHAMPAIGN      CLOUDY    74  70  87 N5        30.03R
MATTOON        CLOUDY    74  71  91 N3        30.01R
PARIS*         CLOUDY    73  72  96 CALM      30.02S
$$

ILZ079-100>102-261000-
SOUTHWEST ILLINOIS

CITY           SKY/WX    TMP DP  RH WIND       PRES   REMARKS
ALTON          CLOUDY    75  73  96 CALM      30.01S
BELLEVILLE     CLOUDY    77  77 100 CALM      29.99S
CAHOKIA*       CLOUDY    77  74  90 CALM      29.99F
SPARTA*        CLOUDY    75  75  98 CALM      30.01S
$$

ILZ064>066-069>071-074>076-080>082-084>086-088>090-092>094-261000-
SOUTH-CENTRAL ILLINOIS

CITY           SKY/WX    TMP DP  RH WIND       PRES   REMARKS
CARBONDALE     CLOUDY    76  74  93 CALM      29.99S
CAIRO*         PTCLDY    74  74 100 CALM      30.00S FOG
EFFINGHAM*     CLOUDY    76  76 100 CALM      30.01S
MARION         CLOUDY    77  75  94 S3        30.01R FOG
MT. VERNON     CLOUDY    73  68  83 CALM      29.99R
CENTRALIA*     MOCLDY    76  76 100 NW3       29.99S FOG
SALEM*         CLOUDY    76  74  95 N3        30.00R FOG
METROPOLIS*      N/A     74  74  99 CALM      30.01R FOG
$$

ILZ067-068-072-073-078-083-087-091-261000-
SOUTHEAST ILLINOIS

CITY           SKY/WX    TMP DP  RH WIND       PRES   REMARKS
LAWRENCEVILLE  FOG       76  76 100 CALM      29.99S VSB 1/4
FLORA*         CLOUDY    74  74  98 CALM      29.99S FOG
FAIRFIELD*     CLEAR     73  73 100 CALM      29.98S FOG
HARRISBURG*    FOG       74  74 100 CALM      30.00R VSB 1/2
ROBINSON*        N/A     72  72 100 N3        30.00S FOG
CARMI*         MOCLDY    73  73 100 CALM      29.99R FOG
$$

ABBREVIATIONS USED IN REMARKS
   TC - TEMPERATURE IN CELSIUS
  WCI - WIND CHILL INDEX
   HX - HEAT INDEX
  VSB - VISIBILITY
$$





USA.gov is the U.S. government's official web portal to all federal, state and local government web resources and services.